Flag for USA

Past Weather in Columbus Historic District, Georgia, USA — Yesterday and Last 2 Weeks

Now
72 °F

Mostly cloudy.


Feels Like: 71 °F
Forecast: 81 / 64 °F
Wind: 5 mph from North

Location: Columbus Metropolitan Airport

Current Time: Oct 13, 2019 at 9:03:40 pm

Latest Report: Oct 13, 2019 at 7:51 pm


Visibility: 10 mi

Pressure: 30.03 "Hg

Humidity: 84%

Dew Point: 67 °F

Location of Columbus Historic DistrictLocation

Past Weather in Columbus Historic District — Graph

°F

Columbus Historic District Temperature Yesterday

Maximum temperature yesterday: 86 °F (at 2:51 pm)
Minimum temperature yesterday: 61 °F (at 7:51 am)
Average temperature yesterday: 73 °F

High & Low Weather Summary for the Past Weeks

 TemperatureHumidityPressure
High100 °F (Oct 4, 4:51 pm)91% (Sep 28, 11:51 pm)30.21 "Hg (Sep 28, 11:51 pm)
Low60 °F (Oct 11, 7:51 am)26% (Oct 4, 4:51 pm)29.90 "Hg (Oct 4, 4:51 pm)
Average79 °F62%30.04 "Hg
* Reported Sep 28 7:06 pm — Oct 13 7:51 pm, Columbus Historic District. Weather by CustomWeather, © 2019

Note: Actual official high and low records may vary slightly from our data, if they occured in-between our weather recording intervals... More about our weather records

Advertising

Columbus Historic District Weather History for the Previous 24 Hours

Scroll right to see more
 ConditionsComfort  
Time TempWeatherWind HumidityBarometerVisibility
7:51 pm
Sun, Oct 13
72 °FMostly cloudy.5 mph84%30.03 "Hg10 mi
6:51 pm73 °FScattered clouds.5 mph84%30.03 "Hg10 mi
5:51 pm74 °FLight rain. Cloudy.3 mph85%30.02 "Hg5 mi
5:38 pm74 °FMore clouds than sun.5 mph85%30.03 "Hg10 mi
5:23 pm74 °FThunderstorms. Overcast.6 mph85%30.03 "Hg9 mi
4:51 pm76 °FOvercast.13 mph74%30.00 "Hg10 mi
3:51 pm80 °FBroken clouds.13 mph64%29.99 "Hg10 mi
2:51 pm82 °FMore clouds than sun.10 mph58%29.99 "Hg10 mi
1:58 pm82 °FScattered clouds.9 mph58%30.01 "Hg10 mi
12:51 pm81 °FPartly sunny.13 mph62%30.02 "Hg10 mi
11:51 am79 °FOvercast.10 mph65%30.04 "Hg10 mi
11:38 am78 °FMostly cloudy.8 mph66%30.06 "Hg10 mi
10:51 am77 °FOvercast.7 mph66%30.05 "Hg10 mi
9:51 am72 °FOvercast.No wind76%30.04 "Hg10 mi
8:51 am70 °FMore clouds than sun.No wind79%30.04 "Hg10 mi
8:30 am69 °FMostly cloudy.No wind81%30.05 "Hg10 mi
7:51 am68 °FPassing clouds.No wind82%30.03 "Hg10 mi
6:51 am68 °FClear.No wind82%30.01 "Hg10 mi
5:51 am69 °FClear.5 mph81%30.00 "Hg10 mi
4:51 am69 °FClear.3 mph81%29.98 "Hg10 mi
3:51 am70 °FClear.No wind79%29.98 "Hg10 mi
2:51 am70 °FClear.3 mph79%29.99 "Hg10 mi
1:51 am72 °FOvercast.3 mph73%29.98 "Hg10 mi
12:51 am73 °FOvercast.No wind71%30.00 "Hg10 mi
11:51 pm
Sat, Oct 12
73 °FMostly cloudy.3 mph71%30.00 "Hg10 mi
10:51 pm74 °FOvercast.6 mph69%30.01 "Hg10 mi
9:51 pm75 °FOvercast.8 mph69%30.01 "Hg10 mi
Weather by CustomWeather, © 2019

See weather overview